HP3ICC-22 Weather Reports


time (UTC)temp
F
wind
direction
speed
knots
gust
knots
rain 1hr
in
rain 24hr
in
rain mn
in
humidity
%
barometer
mb
20260503014212 51 358 1.7 3.5 0.00 0.00 0.00 82 1014.0
20260503014111 51 358 1.7 3.5 0.00 0.00 0.00 82 1014.0
20260503012211 49 7 0.9 2.6 0.00 0.00 0.00 83 1013.0
20260503012111 49 7 0.9 2.6 0.00 0.00 0.00 83 1013.0
20260503010210 50 7 0.9 2.6 0.00 0.00 0.00 83 1014.0
20260503010110 50 7 0.9 2.6 0.00 0.00 0.00 83 1014.0
20260503004210 50 20 0.9 2.6 0.00 0.00 0.00 82 1014.0
20260503004110 50 20 0.9 2.6 0.00 0.00 0.00 82 1014.0
20260503002210 52 20 1.7 2.6 0.00 0.00 0.00 82 1012.0
20260503002109 52 20 1.7 2.6 0.00 0.00 0.00 82 1012.0
20260503000211 50 20 1.7 2.6 0.05 0.00 0.00 83 1013.0
20260503000109 50 20 1.7 2.6 0.05 0.00 0.00 83 1013.0
20260502234209 51 20 1.7 2.6 0.07 0.00 0.00 83 1013.0
20260502234108 51 20 1.7 2.6 0.07 0.00 0.00 83 1013.0
20260502232208 52 34 1.7 3.5 0.08 0.00 0.00 82 1011.0
20260502232108 52 34 1.7 3.5 0.08 0.00 0.00 82 1011.0
20260502230207 50 34 1.7 3.5 0.01 0.00 0.00 82 1012.0
20260502230107 50 34 1.7 3.5 0.01 0.00 0.00 82 1012.0
20260502224207 51 34 1.7 3.5 0.00 0.00 0.00 82 1012.0
20260502224107 51 34 1.7 3.5 0.00 0.00 0.00 82 1012.0
20260502222206 52 18 2.6 5.2 0.00 0.00 0.00 82 1010.0
20260502222106 52 18 2.6 5.2 0.00 0.00 0.00 82 1010.0
20260502220206 52 18 2.6 5.2 0.00 0.00 0.00 82 1011.0
20260502220106 52 18 2.6 5.2 0.00 0.00 0.00 82 1011.0
20260502214206 50 18 2.6 5.2 0.00 0.00 0.00 85 1011.0
20260502214105 50 18 2.6 5.2 0.00 0.00 0.00 85 1011.0
20260502212205 51 11 0.9 4.3 0.01 0.00 0.00 85 1010.0
20260502212105 51 11 0.9 4.3 0.01 0.00 0.00 85 1010.0
20260502210205 52 11 0.9 4.3 0.00 0.00 0.00 83 1012.0
20260502210104 52 11 0.9 4.3 0.00 0.00 0.00 83 1012.0
20260502204204 54 11 0.9 4.3 0.01 0.00 0.00 82 1012.0
20260502204104 54 11 0.9 4.3 0.01 0.00 0.00 82 1012.0
20260502202203 52 349 1.7 3.5 0.04 0.00 0.00 86 1011.0
20260502202103 52 349 1.7 3.5 0.04 0.00 0.00 86 1011.0
20260502200203 52 349 1.7 3.5 0.04 0.00 0.00 86 1012.0
20260502194202 53 349 1.7 3.5 0.04 0.00 0.00 86 1012.0
20260502194102 53 349 1.7 3.5 0.04 0.00 0.00 86 1012.0
20260502192202 54 21 2.6 5.2 0.06 0.00 0.00 82 1011.0
20260502192102 54 21 2.6 5.2 0.06 0.00 0.00 82 1011.0
20260502190201 52 21 2.6 5.2 0.06 0.00 0.00 90 1012.0
20260502184201 53 21 2.6 5.2 0.06 0.00 0.00 90 1012.0
20260502184101 53 21 2.6 5.2 0.06 0.00 0.00 90 1012.0
20260502182200 53 43 1.7 4.3 0.01 0.00 0.00 84 1012.0
20260502182100 53 43 1.7 4.3 0.01 0.00 0.00 84 1012.0
20260502180200 52 43 1.7 4.3 0.01 0.00 0.00 88 1013.0
20260502170158 53 87 1.7 2.6 0.02 0.00 0.00 89 1014.0
20260502164157 53 87 1.7 2.6 0.02 0.00 0.00 88 1014.0
20260502164057 53 87 1.7 2.6 0.02 0.00 0.00 88 1014.0
20260502162157 55 85 1.7 2.6 0.01 0.00 0.00 82 1012.0
20260502162056 55 85 1.7 2.6 0.01 0.00 0.00 82 1012.0
20260502160156 54 85 1.7 2.6 0.01 0.00 0.00 83 1013.0
20260502152155 54 64 1.7 3.5 0.00 0.00 0.00 81 1013.0
20260502152055 54 64 1.7 3.5 0.00 0.00 0.00 81 1013.0
20260502150155 54 64 1.7 3.5 0.00 0.00 0.00 81 1013.0
20260502130152 53 7 2.6 4.3 0.00 0.00 0.00 90 1013.0
20260502122151 50 2 1.7 4.3 0.00 0.00 0.00 81 1012.0
20260502122051 50 2 1.7 4.3 0.00 0.00 0.00 81 1012.0
20260502120151 50 2 1.7 4.3 0.00 0.00 0.00 81 1013.0
20260502114150 50 2 1.7 4.3 0.00 0.00 0.00 81 1013.0
20260502114050 50 2 1.7 4.3 0.00 0.00 0.00 81 1013.0
20260502112150 48 359 0.9 2.6 0.00 0.00 0.00 81 1011.0
20260502112050 48 359 0.9 2.6 0.00 0.00 0.00 81 1011.0
20260502110149 50 359 1.7 2.6 0.00 0.00 0.00 81 1013.0
20260502110049 50 359 1.7 2.6 0.00 0.00 0.00 81 1013.0
20260502104149 48 359 1.7 2.6 0.00 0.00 0.00 89 1013.0
20260502102149 49 358 1.7 2.6 0.00 0.00 0.00 89 1011.0
20260502102048 49 358 1.7 2.6 0.00 0.00 0.00 89 1011.0
20260502100148 50 358 1.7 2.6 0.00 0.00 0.00 81 1012.0
20260502090147 49 351 1.7 2.6 0.00 0.00 0.00 91 1012.0
20260502070142 51 300 1.7 1.7 0.00 0.00 0.00 81 1012.0
20260502070042 51 300 1.7 1.7 0.00 0.00 0.00 81 1012.0
20260502064142 50 300 1.7 1.7 0.00 0.00 0.00 93 1012.0
20260502064042 50 300 1.7 1.7 0.00 0.00 0.00 93 1012.0
20260502062142 51 45 0.0 0.9 0.00 0.00 0.00 81 1012.0
20260502062041 51 45 0.0 0.9 0.00 0.00 0.00 81 1012.0
20260502060141 49 45 0.0 0.9 0.00 0.00 0.00 93 1013.0
20260502060040 49 45 0.0 0.9 0.00 0.00 0.00 93 1013.0
20260502054140 50 45 0.0 0.9 0.00 0.00 0.00 93 1013.0
20260502054040 50 45 0.0 0.9 0.00 0.00 0.00 93 1013.0
20260502052140 51 97 0.9 0.9 0.00 0.00 0.00 81 1013.0
20260502052040 51 97 0.9 0.9 0.00 0.00 0.00 81 1013.0
20260502050139 50 97 0.9 0.9 0.00 0.00 0.00 95 1013.0
20260502050039 50 97 0.9 0.9 0.00 0.00 0.00 95 1013.0
20260502044139 51 97 0.9 0.9 0.00 0.00 0.00 81 1013.0
20260502044038 51 97 0.9 0.9 0.00 0.00 0.00 81 1013.0
20260502042138 50 345 0.9 0.9 0.00 0.00 0.00 89 1013.0
20260502042038 50 345 0.9 0.9 0.00 0.00 0.00 89 1013.0
20260502040138 50 345 0.9 0.9 0.00 0.00 0.00 83 1013.0
20260502040038 50 345 0.9 0.9 0.00 0.00 0.00 83 1013.0
20260502034137 52 345 0.9 0.9 0.00 0.00 0.00 81 1013.0
20260502034037 52 345 0.9 0.9 0.00 0.00 0.00 81 1013.0
20260502032137 51 352 0.9 1.7 0.00 0.00 0.00 93 1012.0
20260502032037 51 352 0.9 1.7 0.00 0.00 0.00 93 1012.0
20260502030136 52 352 0.9 1.7 0.00 0.00 0.00 81 1013.0
20260502030036 52 352 0.9 1.7 0.00 0.00 0.00 81 1013.0
20260502024136 51 352 0.9 1.7 0.00 0.00 0.00 91 1013.0
20260502024036 51 352 0.9 1.7 0.00 0.00 0.00 91 1013.0
20260502022135 52 356 0.9 1.7 0.00 0.00 0.00 81 1012.0
20260502022035 52 356 0.9 1.7 0.00 0.00 0.00 81 1012.0
20260502020135 50 356 0.9 1.7 0.00 0.00 0.00 91 1013.0
20260502020035 50 356 0.9 1.7 0.00 0.00 0.00 91 1013.0